Starlink 1154

operational
NORAD ID: 45198 Int'l Des: 2020-012 Owner: SPXS Country: US Constellation: starlink
LEOCIRCULARSTARLINK_TYPE

关于 Starlink 1154

正在加载描述...

实时位置

正在加载3D地球...

即将过境

高度历史

Altitude vs Time

uPlot chart will show altitude changes over time

两行轨道根数

1 45198U 20012W 25259.23099938 .00001245 00000-0 10248-3 0 9998
2 45198 53.0545 89.7941 0002122 87.0219 273.1013 15.06407404308765
Epoch: Sep 16, 2025 • Age: 7 hours

当前状态

高度 547.6 km
速度 7.59 km/s
星下点 3.27°N, 79.94°E
发射日期 Feb 17, 2020
运行时间 5.5 years
类型 internet

技术详情

分类 Payload
质量 260.00 kg
干质量 248.00 kg
总质量 260.00 kg
长度 0.20 m
直径 2.80 m
跨度 9.00 m
形状 Box + pan
制造商 SPXS
平台类型 Starlink
阶段状态 In Orbit
所有者/国家 SPXS/US

大型星座

Loading constellations...